Home   Weather   Geretsried   Past weeks

Flag for Germany Past Weather in Geretsried, Bavaria, Germany — Yesterday and Last 2 Weeks

Now
46 °F

Partly sunny.


Feels Like: 40 °F
Forecast: 39 / 47 °F
Wind: 14 mph from West

Location: Oberpfaffenhofen

Current Time: Feb 20, 2017 at 2:46:15 pm

Latest Report: Feb 20, 2017 at 2:20 pm


Visibility: N/A

Pressure: 30.15 "Hg (28.00 "Hg at 609m altitude)

Humidity: 62%

Dew Point: 34 °F

Location of GeretsriedLocation

Past Weather in Geretsried — Graph

°F

Geretsried Temperature Yesterday

Maximum temperature yesterday: 46 °F (at 2:50 pm)
Minimum temperature yesterday: 28 °F (at 8:50 am)
Average temperature yesterday: 38 °F

High & Low Weather Summary for the Past Weeks

 TemperatureHumidityPressure
High57 °F (Feb 16, 2:50 pm)100% (Feb 11, 8:20 am)30.54 "Hg (Feb 11, 8:20 am)
Low21 °F (Feb 11, 8:20 am)31% (Feb 16, 2:50 pm)29.53 "Hg (Feb 5, 3:20 pm)
Average35 °F79%30.21 "Hg
* Reported Feb 5 1:20 pm — Feb 20 1:20 pm, Geretsried, Weather by CustomWeather, © 2017

Note: Actual official high and low records may vary slightly from our data, if they occured in-between our weather recording intervals... More about our weather records

Advertising

Geretsried Weather History for the Previous 24 Hours

Scroll right to see more
 ConditionsComfort  
Time TempWeatherWind HumidityBarometerVisibility
1:20 pm
Mon, Feb 20
46 °FScattered clouds.14 mph62%30.15 "HgN/A
12:50 pm45 °FBroken clouds.20 mph66%30.18 "HgN/A
12:20 pm45 °FPartly sunny.15 mph66%30.18 "HgN/A
11:50 am45 °FBroken clouds.18 mph66%30.21 "HgN/A
11:20 am45 °FPartly sunny.15 mph71%30.21 "HgN/A
10:50 am43 °FBroken clouds.18 mph71%30.21 "HgN/A
10:20 am43 °FPartly sunny.10 mph76%30.21 "HgN/A
9:50 am41 °FPartly sunny.9 mph81%30.21 "HgN/A
9:20 am39 °FPartly sunny.7 mph81%30.21 "HgN/A
8:50 am39 °FLight rain. Partly sunny.7 mph81%30.21 "HgN/A
8:20 am37 °FLight rain. Partly sunny.10 mph87%30.18 "HgN/A
7:50 am37 °FPartly sunny.9 mph87%30.18 "HgN/A
7:20 am37 °FPartly sunny.9 mph87%30.18 "HgN/A
6:50 am37 °FLight rain. Passing clouds.8 mph87%30.18 "HgN/A
3:50 pm
Sun, Feb 19
45 °FPassing clouds.9 mph61%30.15 "HgN/A
3:20 pm46 °FPassing clouds.12 mph57%30.18 "HgN/A
2:50 pm46 °FSunny.12 mph62%30.18 "Hg10 mi
Weather by CustomWeather, © 2017

See weather overviewHow to use our weather pages